Location: *
(51.5000°N, 0.1100°W)
Time: 06:00:59
(UTC+00:00)

Cosmos 1025 Rocket - Pass Details

Date: 06 August 2024
Orbit: 590 x 612 km, 82.5° (Epoch: 07 September)

Event Time Altitude Azimuth Distance (km) Brightness Sun altitude
Rises 03:16:59 0° 2° (N) 2,884 7.3 -10.3°
Reaches altitude 10° 03:20:12 10° 27° (NNE) 1,978 7.0 -9.9°
Maximum altitude 03:22:35 14° 61° (ENE) 1,710 6.7 -9.7°
Drops below altitude 10° 03:24:58 10° 94° (E) 1,975 6.3 -9.4°
Sets 03:28:10 0° 119° (ESE) 2,876 6.8 -9.0°
